Date String (YYYY-MM-DD hh:mm:ss) UTC,Instrument flags,absolute air pressure of the measurement (hPa),sample flow rate (lpm),inlet stack bypass flow (lpm),air temperature of the measurement (°C),ambient temperature measured by the external sensor (°C),aerosol sample conditioner tube jacket temperature (°C),OPC LED temperature (°C),internal box temperature (°C),relative humidity of the measurement (%),span deviation,mass concentration of particles derived from Lorenz-Mie calculation of OPC scattering (μg/m³),mass concentration of particles derived from Lorenz-Mie calculation of OPC scattering (μg/m³),mass concentration of particles derived from Lorenz-Mie calculation of OPC scattering (μg/m³)
DateTimeUTC,F1_M11,P_M11,Q1_M11,Q2_M11,T1_M11,T2_M11,T3_M11,T4_M11,T5_M11,U1_M11,ZSPAN_M11,X0_M11,X2_M11,X1_M11
2024-05-17 14:00:00,SystemResetWarning,0823.2,4.99,000.00,025.0,024.4,000.0,033.1,026.9,015.6,0000.0,0007.15,0002.87,0002.08
2024-05-17 14:01:00,SystemResetWarning,0823.2,4.99,000.00,025.1,024.5,000.0,033.1,026.9,015.3,0000.0,0007.89,0002.88,0002.09
2024-05-17 14:02:00,SystemResetWarning,0823.2,5.00,000.00,025.1,024.5,000.0,033.1,027.0,015.4,0000.0,0008.62,0002.83,0002.10
2024-05-17 14:03:00,SystemResetWarning,0823.2,5.01,000.00,025.2,024.6,000.0,033.1,027.0,015.4,0000.0,0008.43,0002.77,0002.10
2024-05-17 14:04:00,SystemResetWarning,0823.2,5.01,000.00,025.2,024.7,000.0,033.2,027.1,015.6,0000.0,0009.37,0002.74,0002.09
2024-05-17 14:05:00,SystemResetWarning,0823.3,4.99,000.00,025.3,024.7,000.0,033.2,027.1,014.9,0000.0,0009.36,0002.71,0002.10
2024-05-17 14:06:00,SystemResetWarning,0823.3,4.99,000.00,025.3,024.6,000.0,033.2,027.0,015.4,0000.0,0009.33,0002.71,0002.10
2024-05-17 14:07:00,SystemResetWarning,0823.2,5.00,000.00,025.1,022.9,000.0,033.3,026.2,015.5,0000.0,0009.60,0002.73,0002.10
2024-05-17 14:08:00,SystemResetWarning,0823.2,5.01,000.00,024.7,021.4,000.0,033.3,025.4,015.8,0000.0,0010.08,0002.73,0002.10
2024-05-17 14:09:00,SystemResetWarning,0823.2,5.01,000.00,024.5,021.8,000.0,033.3,025.5,015.1,0000.0,0010.49,0002.76,0002.09
2024-05-17 14:10:00,SystemResetWarning,0823.3,4.98,000.00,024.5,022.2,000.0,033.1,025.6,015.7,0000.0,0010.57,0002.75,0002.09
2024-05-17 14:11:00,SystemResetWarning,0823.3,4.99,000.00,024.5,022.6,000.0,033.0,025.9,015.6,0000.0,0010.20,0002.80,0002.11
2024-05-17 14:12:00,SystemResetWarning,0823.3,4.99,000.00,024.5,022.9,000.0,033.0,026.1,015.4,0000.0,0010.17,0002.80,0002.11
2024-05-17 14:13:00,SystemResetWarning,0823.3,5.00,000.00,024.6,023.2,000.0,032.9,026.2,015.3,0000.0,0009.46,0002.83,0002.10
2024-05-17 14:14:00,SystemResetWarning,0823.3,5.01,000.00,024.6,023.4,000.0,032.9,026.4,015.0,0000.0,0009.78,0002.83,0002.11
2024-05-17 14:15:00,SystemResetWarning,0823.3,5.00,000.00,024.6,023.6,000.0,032.9,026.4,015.1,0000.0,0009.02,0002.89,0002.12
2024-05-17 14:16:00,SystemResetWarning,0823.3,4.99,000.00,024.7,023.8,000.0,032.9,026.5,015.3,0000.0,0009.00,0002.89,0002.13
2024-05-17 14:17:00,SystemResetWarning,0823.3,4.99,000.00,024.7,023.9,000.0,032.9,026.5,015.6,0000.0,0008.92,0002.84,0002.11
2024-05-17 14:18:00,SystemResetWarning,0823.3,5.00,000.00,024.8,024.1,000.0,032.9,026.6,014.9,0000.0,0008.74,0002.86,0002.12
2024-05-17 14:19:00,SystemResetWarning,0823.3,5.00,000.00,024.9,024.2,000.0,032.9,026.6,015.6,0000.0,0008.72,0002.96,0002.13
2024-05-17 14:20:00,SystemResetWarning,0823.3,5.00,000.00,024.9,024.3,000.0,032.9,026.7,015.5,0000.0,0008.39,0002.97,0002.13
2024-05-17 14:21:00,SystemResetWarning,0823.3,5.00,000.00,024.9,024.4,000.0,032.9,026.8,015.0,0000.0,0008.13,0002.97,0002.12
2024-05-17 14:22:00,SystemResetWarning,0823.3,5.00,000.00,025.0,024.4,000.0,033.0,026.8,014.8,0000.0,0008.72,0002.96,0002.12
2024-05-17 14:23:00,SystemResetWarning,0823.3,5.00,000.00,025.0,024.5,000.0,033.0,026.9,015.4,0000.0,0008.30,0002.97,0002.13
2024-05-17 14:24:00,SystemResetWarning,0823.2,5.00,000.00,025.1,024.6,000.0,033.0,026.9,015.4,0000.0,0007.96,0002.95,0002.13
2024-05-17 14:25:00,SystemResetWarning,0823.2,4.99,000.00,025.1,024.2,000.0,033.1,026.7,015.2,0000.0,0007.45,0002.94,0002.13
2024-05-17 14:26:00,SystemResetWarning,0823.0,4.99,000.00,024.8,022.3,000.0,033.2,025.8,015.4,0000.0,0006.88,0002.89,0002.12
2024-05-17 14:27:00,SystemResetWarning,0823.0,5.02,000.00,024.5,021.6,000.0,033.2,025.3,015.8,0000.0,0006.67,0002.88,0002.11
2024-05-17 14:28:00,SystemResetWarning,0823.1,5.00,000.00,024.4,022.1,000.0,033.1,025.5,016.0,0000.0,0006.67,0002.93,0002.12
2024-05-17 14:29:00,SystemResetWarning,0823.1,5.00,000.00,024.4,022.5,000.0,033.0,025.6,015.7,0000.0,0007.19,0002.94,0002.12
2024-05-17 14:30:00,SystemResetWarning,0823.1,5.00,000.00,024.4,022.8,000.0,032.9,025.9,015.4,0000.0,0006.33,0002.87,0002.12
2024-05-17 14:31:00,SystemResetWarning,0823.1,5.01,000.00,024.5,023.1,000.0,032.8,026.1,015.5,0000.0,0007.00,0002.82,0002.13
2024-05-17 14:32:00,SystemResetWarning,0823.1,5.01,000.00,024.5,023.3,000.0,032.8,026.2,015.8,0000.0,0007.71,0002.86,0002.13
2024-05-17 14:33:00,SystemResetWarning,0823.1,4.99,000.00,024.6,023.5,000.0,032.8,026.3,015.9,0000.0,0006.69,0002.81,0002.11
2024-05-17 14:34:00,SystemResetWarning,0823.1,5.00,000.00,024.6,023.7,000.0,032.8,026.4,016.0,0000.0,0006.50,0002.79,0002.10
2024-05-17 14:35:00,SystemResetWarning,0823.1,4.99,000.00,024.7,023.9,000.0,032.8,026.5,015.8,0000.0,0006.68,0002.81,0002.10
2024-05-17 14:36:00,SystemResetWarning,0823.1,5.00,000.00,024.7,024.0,000.0,032.8,026.6,015.8,0000.0,0007.04,0002.85,0002.11
2024-05-17 14:37:00,SystemResetWarning,0823.1,5.00,000.00,024.8,024.1,000.0,032.8,026.6,016.1,0000.0,0007.10,0002.86,0002.11
2024-05-17 14:38:00,SystemResetWarning,0823.1,5.00,000.00,024.8,024.2,000.0,032.9,026.6,016.1,0000.0,0007.08,0002.86,0002.11
2024-05-17 14:39:00,SystemResetWarning,0823.1,5.01,000.00,024.9,024.3,000.0,032.9,026.7,016.2,0000.0,0007.16,0002.88,0002.10
2024-05-17 14:40:00,SystemResetWarning,0823.2,4.99,000.00,024.9,024.4,000.0,032.9,026.8,016.6,0000.0,0007.08,0002.94,0002.11
2024-05-17 14:41:00,SystemResetWarning,0823.1,4.99,000.00,025.0,024.4,000.0,032.9,026.8,015.6,0000.0,0008.10,0002.98,0002.10
2024-05-17 14:42:00,SystemResetWarning,0823.0,4.99,000.00,024.9,023.4,000.0,033.0,026.2,016.0,0000.0,0008.20,0002.98,0002.08
2024-05-17 14:43:00,SystemResetWarning,0823.0,5.00,000.00,024.5,021.9,000.0,033.1,025.4,016.2,0000.0,0007.49,0002.93,0002.08
2024-05-17 14:44:00,SystemResetWarning,0823.1,5.02,000.00,024.4,022.0,000.0,033.1,025.4,016.6,0000.0,0007.51,0002.94,0002.08
2024-05-17 14:45:00,SystemResetWarning,0823.0,5.00,000.00,024.3,022.4,000.0,032.9,025.5,016.5,0000.0,0007.85,0002.94,0002.07
2024-05-17 14:46:00,SystemResetWarning,0823.0,4.99,000.00,024.3,022.7,000.0,032.8,025.7,015.7,0000.0,0007.94,0002.97,0002.06
2024-05-17 14:47:00,SystemResetWarning,0823.0,4.99,000.00,024.4,023.0,000.0,032.8,026.0,016.1,0000.0,0007.82,0002.95,0002.05
2024-05-17 14:48:00,SystemResetWarning,0823.0,5.00,000.00,024.4,023.2,000.0,032.7,026.1,016.2,0000.0,0007.87,0002.97,0002.03
2024-05-17 14:49:00,SystemResetWarning,0823.0,5.01,000.00,024.5,023.5,000.0,032.7,026.2,016.3,0000.0,0007.92,0003.02,0002.03
2024-05-17 14:50:00,SystemResetWarning,0823.0,5.00,000.00,024.5,023.7,000.0,032.7,026.3,015.9,0000.0,0008.12,0002.98,0002.04
2024-05-17 14:51:00,SystemResetWarning,0823.0,4.99,000.00,024.6,023.8,000.0,032.7,026.4,016.0,0000.0,0007.86,0002.86,0002.03
2024-05-17 14:52:00,SystemResetWarning,0823.0,5.00,000.00,024.7,024.0,000.0,032.7,026.5,016.1,0000.0,0007.30,0002.84,0002.03
2024-05-17 14:53:00,SystemResetWarning,0823.0,5.00,000.00,024.7,024.1,000.0,032.8,026.6,015.8,0000.0,0007.01,0002.89,0002.04
2024-05-17 14:54:00,SystemResetWarning,0823.0,5.01,000.00,024.8,024.2,000.0,032.8,026.6,016.1,0000.0,0007.57,0002.89,0002.03
2024-05-17 14:55:00,SystemResetWarning,0822.9,5.00,000.00,024.8,024.3,000.0,032.8,026.7,015.4,0000.0,0007.52,0002.85,0002.03
2024-05-17 14:56:00,SystemResetWarning,0823.0,5.00,000.00,024.9,024.3,000.0,032.9,026.7,015.4,0000.0,0007.86,0002.85,0002.04
2024-05-17 14:57:00,SystemResetWarning,0823.0,4.98,000.00,024.8,023.2,000.0,032.9,026.0,015.6,0000.0,0008.08,0002.82,0002.05
2024-05-17 14:58:00,SystemResetWarning,0822.9,5.01,000.00,024.4,021.7,000.0,033.0,025.3,016.9,0000.0,0008.38,0002.79,0002.04
2024-05-17 14:59:00,SystemResetWarning,0822.8,5.01,000.00,024.3,022.0,000.0,033.0,025.3,016.2,0000.0,0008.43,0002.84,0002.04
